TimeCST,TemperatureF,Dew PointF,Humidity,Sea Level PressureIn,VisibilityMPH,Wind Direction,Wind SpeedMPH,Gust SpeedMPH,PrecipitationIn,Events,Conditions,WindDirDegrees,DateUTC
12:54 AM,48.9,45.0,86,29.97,8.0,NNE,4.6,-,N/A,,Overcast,30,2012-12-09 06:54:00
1:54 AM,48.9,45.0,86,29.96,7.0,ENE,8.1,-,N/A,,Overcast,70,2012-12-09 07:54:00
2:54 AM,50.0,46.0,86,29.95,8.0,East,3.5,-,N/A,,Overcast,90,2012-12-09 08:54:00
3:33 AM,50.0,46.4,87,29.92,8.0,East,5.8,-,N/A,,Overcast,80,2012-12-09 09:33:00
3:42 AM,50.0,46.4,87,29.92,8.0,East,4.6,-,N/A,,Overcast,80,2012-12-09 09:42:00
3:54 AM,50.0,46.0,86,29.91,8.0,East,4.6,-,N/A,,Overcast,80,2012-12-09 09:54:00
4:05 AM,50.0,46.4,87,29.91,8.0,East,5.8,-,N/A,,Overcast,90,2012-12-09 10:05:00
4:19 AM,50.0,46.4,87,29.91,8.0,ESE,5.8,-,N/A,,Overcast,110,2012-12-09 10:19:00
4:30 AM,50.0,46.4,87,29.91,7.0,East,3.5,-,N/A,,Overcast,90,2012-12-09 10:30:00
4:42 AM,50.0,46.4,87,29.91,7.0,ESE,4.6,-,N/A,,Overcast,110,2012-12-09 10:42:00
4:54 AM,51.1,46.9,86,29.91,7.0,East,8.1,-,0.00,Rain-Thunderstorm,Light Rain,100,2012-12-09 10:54:00
5:11 AM,51.8,46.4,82,29.90,7.0,East,6.9,-,0.00,Rain,Light Rain,100,2012-12-09 11:11:00
5:54 AM,51.1,48.0,89,29.88,6.0,East,8.1,-,0.00,,Overcast,100,2012-12-09 11:54:00
6:54 AM,52.0,48.9,89,29.87,6.0,ESE,5.8,-,0.00,Rain,Light Rain,120,2012-12-09 12:54:00
7:30 AM,53.6,51.8,94,29.89,1.5,SSE,8.1,-,0.04,Rain,Light Rain,150,2012-12-09 13:30:00
7:54 AM,53.1,51.1,93,29.87,1.5,SE,8.1,-,0.07,Rain,Light Rain,130,2012-12-09 13:54:00
8:01 AM,53.6,51.8,94,29.86,2.0,SE,9.2,-,0.00,Rain,Light Rain,140,2012-12-09 14:01:00
8:20 AM,53.6,51.8,94,29.87,2.0,SSE,8.1,-,0.00,,Overcast,160,2012-12-09 14:20:00
8:39 AM,55.4,51.8,88,29.87,2.0,SSE,5.8,-,0.00,,Overcast,160,2012-12-09 14:39:00
8:54 AM,55.9,53.1,90,29.88,7.0,South,6.9,-,0.00,,Overcast,170,2012-12-09 14:54:00
9:54 AM,60.1,55.0,83,29.87,10.0,South,6.9,-,N/A,,Overcast,180,2012-12-09 15:54:00
10:54 AM,62.1,55.9,80,29.85,10.0,SSW,6.9,-,N/A,,Mostly Cloudy,200,2012-12-09 16:54:00
11:54 AM,64.0,57.0,78,29.82,10.0,SSW,9.2,-,N/A,,Mostly Cloudy,200,2012-12-09 17:54:00
12:28 PM,64.4,57.2,77,29.81,10.0,SSW,12.7,-,N/A,,Mostly Cloudy,210,2012-12-09 18:28:00
12:54 PM,63.0,57.0,81,29.81,10.0,SSW,13.8,20.7,N/A,,Overcast,210,2012-12-09 18:54:00
1:12 PM,62.6,57.2,82,29.81,8.0,SSW,9.2,-,0.00,Rain,Light Rain,200,2012-12-09 19:12:00
1:23 PM,62.6,57.2,82,29.80,5.0,South,9.2,-,0.02,Rain,Rain,190,2012-12-09 19:23:00
1:37 PM,62.6,57.2,82,29.79,10.0,SSW,9.2,-,0.02,Rain,Light Rain,200,2012-12-09 19:37:00
1:54 PM,63.0,57.9,84,29.78,10.0,SSW,5.8,-,0.02,,Overcast,200,2012-12-09 19:54:00
2:47 PM,62.6,57.2,82,29.78,10.0,South,6.9,-,N/A,,Mostly Cloudy,190,2012-12-09 20:47:00
2:54 PM,63.0,57.9,84,29.78,10.0,South,6.9,-,N/A,,Mostly Cloudy,180,2012-12-09 20:54:00
3:16 PM,62.6,57.2,82,29.77,10.0,South,9.2,-,N/A,Thunderstorm,Mostly Cloudy,190,2012-12-09 21:16:00
3:54 PM,62.1,57.9,86,29.77,10.0,NW,3.5,-,N/A,Thunderstorm,Overcast,320,2012-12-09 21:54:00
4:08 PM,62.6,57.2,82,29.76,10.0,NNE,3.5,-,N/A,,Overcast,30,2012-12-09 22:08:00
4:39 PM,60.8,57.2,88,29.75,10.0,SE,3.5,-,0.00,Thunderstorm,Overcast,130,2012-12-09 22:39:00
4:54 PM,61.0,57.9,90,29.75,10.0,Calm,Calm,-,0.00,Thunderstorm,Overcast,0,2012-12-09 22:54:00
5:19 PM,60.8,57.2,88,29.74,10.0,Calm,Calm,-,0.00,Rain,Light Rain,0,2012-12-09 23:19:00
5:54 PM,61.0,57.9,90,29.74,6.0,Variable,5.8,-,0.01,Rain,Light Rain,0,2012-12-09 23:54:00
6:12 PM,60.8,57.2,88,29.74,4.0,NNW,9.2,18.4,0.02,Rain-Thunderstorm,Heavy Rain,330,2012-12-10 00:12:00
6:39 PM,59.0,55.4,88,29.79,1.5,West,23.0,35.7,0.20,Rain-Thunderstorm,Heavy Rain,260,2012-12-10 00:39:00
6:44 PM,59.0,55.4,88,29.77,1.0,WSW,16.1,35.7,0.44,Rain-Thunderstorm,Heavy Thunderstorms and Rain,240,2012-12-10 00:44:00
6:49 PM,59.0,55.4,88,29.77,1.5,WSW,17.3,23.0,0.50,Rain-Thunderstorm,Heavy Thunderstorms and Rain,250,2012-12-10 00:49:00
6:51 PM,59.0,55.4,88,29.77,3.0,WSW,17.3,23.0,0.51,Rain-Thunderstorm,Heavy Thunderstorms and Rain,240,2012-12-10 00:51:00
6:54 PM,59.0,55.9,90,29.75,3.0,WSW,13.8,23.0,0.52,Rain-Thunderstorm,Heavy Thunderstorms and Rain,240,2012-12-10 00:54:00
7:28 PM,59.0,55.4,88,29.74,10.0,SW,9.2,-,0.04,Rain,Light Rain,230,2012-12-10 01:28:00
7:45 PM,59.0,55.4,88,29.75,10.0,SW,8.1,-,0.05,Rain,Light Rain,220,2012-12-10 01:45:00
7:54 PM,59.0,55.9,90,29.75,10.0,SW,9.2,-,0.05,Rain,Light Rain,230,2012-12-10 01:54:00
8:34 PM,53.6,51.8,94,29.76,10.0,NW,11.5,21.9,0.00,,Overcast,310,2012-12-10 02:34:00
8:54 PM,54.0,50.0,86,29.76,10.0,NW,12.7,-,0.00,,Overcast,310,2012-12-10 02:54:00
9:33 PM,53.6,48.2,82,29.77,10.0,NW,8.1,-,N/A,,Overcast,320,2012-12-10 03:33:00
9:54 PM,53.1,48.0,83,29.78,10.0,NW,9.2,-,N/A,,Overcast,310,2012-12-10 03:54:00
10:10 PM,51.8,46.4,82,29.79,10.0,NW,9.2,-,N/A,,Overcast,310,2012-12-10 04:10:00
10:54 PM,51.1,46.0,83,29.81,10.0,WNW,12.7,17.3,N/A,,Overcast,290,2012-12-10 04:54:00
11:29 PM,48.2,44.6,87,29.81,10.0,NW,15.0,20.7,N/A,,Overcast,310,2012-12-10 05:29:00
11:52 PM,48.2,44.6,87,29.82,10.0,NW,10.4,-,N/A,,Overcast,310,2012-12-10 05:52:00
11:54 PM,48.0,44.1,86,29.81,10.0,NW,12.7,-,N/A,,Overcast,310,2012-12-10 05:54:00